Location: Unspecified
(0.0000°N, 0.0000°E)
Time: 05:41:56
(UTC+00:00)

Vanguard 2 Rocket - Pass Details

Date: 16 October 2022
Orbit: 555 x 3321 km, 32.9° (Epoch: 06 December)

Event Time Altitude Azimuth Distance (km) Brightness Sun altitude
Rises 04:40:35 0° 282° (WNW) 3,925 - -16.1°
Reaches altitude 10° 04:44:32 10° 266° (W) 2,540 - -15.1°
Exits shadow 04:46:40 16° 247° (WSW) 1,928 8.1 -14.6°
Maximum altitude 04:48:31 19° 220° (SW) 1,633 7.9 -14.1°
Drops below altitude 10° 04:51:42 10° 173° (S) 1,959 8.8 -13.3°
Sets 04:54:16 0° 153° (SSE) 2,753 9.9 -12.7°
